KO4RJX-11 Weather Reports


time (UTC)temp
C
wind
direction
speed
KPH
gust
KPH
rain 1hr
cm
rain 24hr
cm
rain mn
cm
humidity
%
barometer
mb
20260503005314 11 200 1.6 3.2 0.00 0.00 1.73 99 1007.6
20260503004633 11 225 1.6 3.2 0.00 0.00 1.73 99 1007.6
20260503003953 11 214 1.6 1.6 0.00 0.00 1.73 99 1007.6
20260503003313 11 196 1.6 1.6 0.00 0.00 1.73 99 1007.6
20260503002634 11 195 1.6 1.6 0.00 0.00 1.73 99 1007.6
20260503001953 11 225 1.6 1.6 0.00 0.00 1.73 99 1007.3
20260503001313 11 210 1.6 1.6 0.00 0.00 1.73 98 1007.3
20260503000843 11 211 1.6 3.2 0.00 0.00 1.73 98 1007.3
20260503000204 11 179 1.6 3.2 0.00 0.00 1.73 98 1007.3
20260502235313 11 189 0.0 1.6 0.00 0.00 1.73 97 1007.3
20260502234633 11 215 1.6 1.6 0.00 0.00 1.73 96 1007.3
20260502234206 11 240 0.0 1.6 0.00 0.00 1.73 96 1006.9
20260502233313 11 88 1.6 1.6 0.00 0.00 1.73 93 1006.9
20260502232634 11 71 1.6 3.2 0.00 0.00 1.73 95 1006.9
20260502231953 11 101 1.6 3.2 0.00 0.00 1.73 94 1006.9
20260502231313 11 96 3.2 3.2 0.00 0.00 1.73 94 1006.9
20260502230633 11 139 1.6 3.2 0.00 0.00 1.73 94 1006.9
20260502225953 11 134 1.6 3.2 0.00 0.00 1.73 94 1006.9
20260502225525 11 92 1.6 3.2 0.00 0.00 1.73 91 1006.9
20260502224846 11 89 1.6 3.2 0.00 0.00 1.73 92 1006.9
20260502224206 11 109 1.6 3.2 0.00 0.00 1.73 91 1006.9
20260502223314 12 115 1.6 3.2 0.00 0.00 1.73 90 1006.9
20260502222633 11 110 1.6 4.8 0.00 0.00 1.73 89 1006.9
20260502221953 11 49 1.6 3.2 0.00 0.00 1.73 86 1006.9
20260502221313 11 171 1.6 4.8 0.00 0.00 1.73 88 1006.6
20260502220633 11 98 3.2 6.4 0.00 0.00 1.73 87 1006.6
20260502215953 11 86 3.2 6.4 0.00 0.00 1.73 88 1006.6
20260502215314 11 97 1.6 6.4 0.00 0.00 1.73 88 1006.6
20260502214633 11 57 3.2 6.4 0.00 0.00 1.73 86 1006.2
20260502213953 11 101 3.2 6.4 0.00 0.00 1.73 88 1006.2
20260502213313 11 67 3.2 6.4 0.00 0.00 1.73 89 1006.2
20260502212634 11 81 3.2 4.8 0.00 0.00 1.73 88 1006.6
20260502211953 11 100 3.2 6.4 0.00 0.00 1.73 85 1006.6
20260502211524 11 52 3.2 6.4 0.00 0.00 1.73 84 1006.9
20260502210633 11 32 3.2 8.0 0.00 0.00 1.73 84 1006.6
20260502205953 11 93 3.2 8.0 0.00 0.00 1.73 82 1006.6
20260502205313 11 61 4.8 9.7 0.00 0.00 1.73 85 1006.6
20260502204634 11 61 3.2 8.0 0.00 0.00 1.73 86 1006.6
20260502203953 11 58 4.8 9.7 0.00 0.00 1.73 82 1006.6
20260502203313 11 93 3.2 8.0 0.00 0.00 1.73 88 1006.6
20260502202633 11 38 4.8 9.7 0.00 0.00 1.73 86 1006.6
20260502201953 11 43 4.8 9.7 0.00 0.00 1.73 89 1006.6
20260502201313 11 63 3.2 6.4 0.00 0.00 1.73 90 1006.6
20260502200633 11 79 3.2 9.7 0.00 0.00 1.73 89 1006.6
20260502195953 11 30 4.8 11.3 0.00 0.00 1.73 89 1006.6
20260502195313 11 43 4.8 11.3 0.00 0.00 1.73 86 1006.9
20260502194848 11 67 4.8 12.9 0.00 0.00 1.73 88 1006.9
20260502193953 11 43 4.8 9.7 0.00 0.00 1.73 89 1006.9
20260502193313 11 32 4.8 9.7 0.00 0.00 1.70 89 1006.9
20260502192633 11 78 3.2 9.7 0.00 0.00 1.70 92 1007.3
20260502191954 11 65 3.2 11.3 0.00 0.00 1.70 92 1007.3
20260502191313 11 78 3.2 11.3 0.00 0.00 1.70 90 1007.3
20260502190633 11 14 4.8 9.7 0.00 0.00 1.70 92 1007.3
20260502185953 11 29 4.8 14.5 0.00 0.00 1.70 92 1007.3
20260502185313 11 46 8.0 14.5 0.00 0.00 1.70 91 1007.3
20260502184634 11 20 3.2 12.9 0.00 0.00 1.70 94 1007.3
20260502183953 11 47 6.4 12.9 0.00 0.00 1.70 94 1007.3
20260502183524 11 39 8.0 16.1 0.00 0.00 1.68 95 1007.3
20260502182633 10 41 6.4 14.5 0.00 0.00 1.68 95 1007.6
20260502181953 11 26 6.4 16.1 0.00 0.00 1.68 92 1007.6
20260502181313 11 6 8.0 16.1 0.00 0.00 1.65 93 1007.6
20260502180633 10 37 8.0 12.9 0.00 0.00 1.65 93 1007.6
20260502163953 10 37 8.0 12.9 0.00 0.00 1.52 95 1008.3
20260502163526 10 41 4.8 11.3 0.00 0.00 1.50 97 1008.6
20260502162633 10 33 6.4 12.9 0.00 0.00 1.47 96 1008.6
20260502161953 10 50 3.2 11.3 0.00 0.00 1.40 98 1008.6
20260502161313 10 70 4.8 12.9 0.00 0.00 1.35 96 1008.6
20260502160843 10 43 6.4 14.5 0.00 0.00 1.30 96 1008.6
20260502151953 11 42 8.0 16.1 0.00 0.00 1.17 94 1008.3
20260502151313 11 32 6.4 14.5 0.00 0.00 1.14 95 1008.6
20260502150844 11 17 6.4 19.3 0.00 0.00 1.12 97 1008.6
20260502130634 11 21 6.4 12.9 0.00 0.00 0.74 96 1007.6
20260502123313 11 15 6.4 12.9 0.00 0.00 0.64 95 1006.9
20260502122633 11 26 4.8 12.9 0.00 0.00 0.61 95 1006.9
20260502121953 11 33 4.8 12.9 0.00 0.00 0.58 95 1006.9
20260502121313 11 7 6.4 11.3 0.00 0.00 0.53 96 1006.9
20260502120633 11 16 8.0 14.5 0.00 0.00 0.51 93 1006.9
20260502115313 11 12 6.4 17.7 0.00 0.00 0.46 94 1006.9
20260502114633 11 5 6.4 17.7 0.00 0.00 0.43 92 1006.9
20260502113954 11 4 11.3 19.3 0.00 0.00 0.41 90 1006.9
20260502113314 11 1 11.3 19.3 0.00 0.00 0.38 90 1007.3
20260502112633 11 357 9.7 16.1 0.00 0.00 0.33 90 1007.3
20260502111953 11 356 8.0 19.3 0.00 0.00 0.30 90 1007.3
20260502111313 11 358 11.3 19.3 0.00 0.00 0.25 89 1007.3
20260502110633 11 354 9.7 19.3 0.00 0.00 0.23 88 1007.3
20260502105953 11 358 11.3 17.7 0.00 0.00 0.18 88 1007.3
20260502105313 11 358 9.7 19.3 0.00 0.00 0.15 88 1007.3
20260502104633 11 357 9.7 19.3 0.00 0.00 0.10 88 1007.3
20260502103953 11 358 9.7 19.3 0.00 0.00 0.05 90 1007.3
20260502103313 11 358 11.3 20.9 0.00 0.00 0.05 89 1007.3
20260502102633 11 354 11.3 20.9 0.00 0.00 0.03 91 1007.3
20260502101953 11 356 9.7 14.5 0.00 0.00 0.00 90 1007.3
20260502101313 12 349 6.4 11.3 0.00 0.00 0.00 88 1007.3
20260502100847 11 342 4.8 14.5 0.00 0.00 0.00 88 1007.3
20260502091313 11 351 3.2 9.7 0.00 0.00 0.00 92 1007.3
20260502090633 11 0 6.4 14.5 0.00 0.00 0.00 91 1006.9
20260502090203 11 358 8.0 12.9 0.00 0.00 0.00 91 1006.9
20260502071313 11 24 3.2 4.8 0.00 0.00 0.00 95 1006.2
20260502070634 11 53 1.6 3.2 0.00 0.00 0.00 96 1006.2
20260502065953 11 13 1.6 4.8 0.00 0.00 0.00 96 1006.9
20260502065313 11 34 3.2 4.8 0.00 0.00 0.00 95 1006.6
20260502064634 11 21 3.2 4.8 0.00 0.00 0.00 94 1006.9
20260502063953 11 57 1.6 3.2 0.00 0.00 0.00 95 1006.6
20260502063313 11 32 3.2 3.2 0.00 0.00 0.00 95 1006.9
20260502062847 11 64 1.6 4.8 0.00 0.00 0.00 95 1006.6
20260502061953 11 0 1.6 3.2 0.00 0.00 0.00 95 1006.9
20260502061314 11 348 1.6 3.2 0.00 0.00 0.00 96 1006.9
20260502060633 11 66 0.0 1.6 0.00 0.00 0.00 97 1006.9
20260502055953 11 188 0.0 1.6 0.00 0.00 0.00 97 1006.9
20260502055526 11 173 0.0 1.6 0.00 0.00 0.00 96 1007.3
20260502054846 11 27 0.0 1.6 0.00 0.00 0.00 96 1007.3
20260502053953 11 276 0.0 1.6 0.00 0.00 0.00 96 1007.3
20260502053523 11 50 0.0 1.6 0.00 0.00 0.00 96 1007.3
20260502052633 11 79 0.0 3.2 0.00 0.00 0.00 97 1007.3
20260502051953 11 32 0.0 3.2 0.00 0.00 0.00 97 1007.3
20260502051313 11 348 1.6 3.2 0.00 0.00 0.00 96 1007.3
20260502050633 11 52 1.6 3.2 0.00 0.00 0.00 96 1007.6
20260502045953 11 340 1.6 3.2 0.00 0.00 0.00 96 1007.6
20260502045313 11 23 0.0 3.2 0.00 0.00 0.00 96 1007.6
20260502044633 11 14 1.6 3.2 0.00 0.00 0.00 96 1007.6
20260502043953 11 26 0.0 1.6 0.00 0.00 0.00 97 1007.6
20260502043313 11 132 0.0 1.6 0.00 0.00 0.00 96 1007.6
20260502042634 11 174 0.0 3.2 0.00 0.00 0.00 96 1007.6
20260502041953 11 352 0.0 3.2 0.00 0.00 0.00 96 1007.9
20260502041313 11 355 1.6 3.2 0.00 0.00 0.00 96 1007.6
20260502040846 11 177 0.0 1.6 0.00 0.00 0.00 96 1007.6
20260502035953 11 55 1.6 3.2 0.00 0.00 0.18 96 1007.6
20260502035313 11 31 1.6 3.2 0.00 0.00 0.18 96 1007.6
20260502034843 11 103 1.6 3.2 0.00 0.00 0.18 96 1007.6
20260502033953 11 137 1.6 3.2 0.00 0.00 0.18 98 1007.6
20260502033313 11 182 1.6 3.2 0.00 0.00 0.18 98 1007.9
20260502032633 11 122 1.6 1.6 0.00 0.00 0.18 97 1007.9
20260502032205 11 42 0.0 1.6 0.00 0.00 0.18 98 1007.9
20260502031313 11 134 0.0 1.6 0.00 0.00 0.18 97 1008.3
20260502030846 11 223 0.0 1.6 0.00 0.00 0.18 96 1008.3
20260502025953 11 110 0.0 1.6 0.00 0.00 0.18 95 1008.3
20260502025313 11 55 1.6 1.6 0.00 0.00 0.18 96 1008.3
20260502024634 11 246 0.0 1.6 0.00 0.00 0.18 94 1008.3
20260502024204 11 17 1.6 3.2 0.00 0.00 0.18 94 1008.3
20260502023313 11 16 1.6 3.2 0.00 0.00 0.18 95 1008.3
20260502022633 11 354 1.6 1.6 0.00 0.00 0.18 94 1008.3
20260502021953 11 60 0.0 3.2 0.00 0.00 0.18 93 1008.3
20260502021313 11 350 1.6 3.2 0.00 0.00 0.18 93 1008.3
20260502020847 11 340 1.6 3.2 0.00 0.00 0.18 94 1008.6
20260502015953 11 9 1.6 3.2 0.00 0.00 0.18 92 1008.3
20260502015313 11 97 0.0 1.6 0.00 0.00 0.18 89 1008.3
20260502014633 11 27 0.0 3.2 0.00 0.00 0.18 88 1008.3
20260502013953 11 204 1.6 4.8 0.00 0.00 0.18 89 1008.3
20260502013313 11 158 3.2 4.8 0.00 0.00 0.18 89 1007.9
20260502012633 11 167 3.2 4.8 0.00 0.00 0.18 92 1008.3
20260502011953 11 175 1.6 3.2 0.00 0.00 0.18 92 1008.3
20260502011313 11 169 1.6 3.2 0.00 0.00 0.18 92 1007.9
20260502010633 11 161 1.6 3.2 0.00 0.00 0.18 92 1007.9
20260502005953 11 121 1.6 3.2 0.00 0.00 0.18 93 1007.9